FW9882 Weather Reports


time (UTC)temp
C
wind
direction
speed
KPH
gust
KPH
rain 1hr
cm
rain 24hr
cm
rain mn
cm
humidity
%
barometer
mb
20260505070153 6 114 0.0 1.6 0.00 0.28 0.00 84 1005.8
20260505060653 8 227 0.0 0.0 0.00 0.33 0.00 77 1005.8
20260505060153 8 229 0.0 4.8 0.00 0.33 0.00 77 1005.5
20260505050653 8 263 3.2 4.8 0.00 0.38 0.00 74 1005.1
20260505050154 8 268 3.2 4.8 0.00 0.38 0.00 74 1005.1
20260505040653 8 278 3.2 4.8 0.00 0.41 0.00 73 1004.7
20260505040153 8 302 3.2 9.7 0.00 0.43 0.00 73 1004.7
20260505030654 8 307 4.8 8.0 0.25 0.51 0.00 71 1004.0
20260505030154 8 255 4.8 11.3 0.25 4.17 0.00 71 1003.7
20260505020154 9 287 1.6 11.3 0.00 4.01 0.25 69 1003.0
20260505010154 10 291 1.6 11.3 0.00 4.14 0.25 67 1002.0
20260505000654 10 319 3.2 4.8 0.00 4.47 0.25 67 1001.4
20260504230654 11 262 11.3 14.5 0.00 4.78 0.25 62 1000.7
20260504230155 11 270 8.0 9.7 0.00 4.80 0.25 63 1000.3
20260504220654 12 250 6.4 9.7 0.00 5.03 0.25 57 999.7
20260504220154 12 280 4.8 11.3 0.00 5.05 0.25 57 999.7
20260504210154 13 323 12.9 19.3 0.00 5.33 0.25 44 999.3
20260504200654 14 253 8.0 9.7 0.00 5.56 0.25 37 999.0
20260504190655 16 269 11.3 20.9 0.00 5.89 0.25 28 998.3
20260504180156 15 265 11.3 19.3 0.00 6.76 0.25 31 998.3
20260504170656 13 268 9.7 11.3 0.00 7.29 0.25 35 998.6
20260504170155 13 279 6.4 20.9 0.00 7.32 0.25 35 998.6
20260504160156 12 67 3.2 16.1 0.00 7.47 0.25 44 998.6
20260504150656 11 297 9.7 14.5 0.00 7.47 0.25 52 999.0
20260504150156 10 260 3.2 19.3 0.00 7.47 0.25 53 998.6
20260504140656 9 275 4.8 8.0 0.00 7.49 0.25 64 998.0
20260504140156 9 285 4.8 19.3 0.00 7.52 0.25 67 998.0
20260504130656 6 320 4.8 8.0 0.00 7.57 0.25 79 997.6
20260504120156 5 339 3.2 22.5 0.00 7.57 0.25 82 996.3
20260504110656 5 275 8.0 9.7 0.00 7.57 0.25 85 995.9
20260504110156 5 278 4.8 14.5 0.00 7.57 0.25 85 995.9
20260504100156 4 284 8.0 11.3 0.00 7.57 0.25 88 994.9
20260504080156 3 307 8.0 16.1 0.03 7.57 0.25 93 992.9